This is the latest recevied weather packets stored in our database for station/object 9W8AKN-L. If no packets are shown the sender has not sent any weather packets the latest 10 day(s).
| Time | Temp. | Humidity | Pressure | Rain* | Wind** | Luminosity | Snow |
|---|---|---|---|---|---|---|---|
| 1778144534 | 30.56° C | 86% | 1005.3 hPa | - | - | - | - |
| 1778143633 | 30.56° C | 86% | 1005.1 hPa | - | - | - | - |
| 1778141840 | 30.56° C | 85% | 1004.8 hPa | - | - | - | - |
| 1778140940 | 30° C | 84% | 1004.9 hPa | - | - | - | - |
| 1778140040 | 30° C | 84% | 1005 hPa | - | - | - | - |
| 1778139137 | 30.56° C | 83% | 1005.1 hPa | - | - | - | - |
| 1778138236 | 30.56° C | 82% | 1005.4 hPa | - | - | - | - |
| 1778137336 | 30° C | 82% | 1005.7 hPa | - | - | - | - |
| 1778136436 | 30° C | 82% | 1005.8 hPa | - | - | - | - |
| 1778135536 | 30° C | 81% | 1006.1 hPa | - | - | - | - |
| 1778134635 | 30° C | 79% | 1006.4 hPa | - | - | - | - |
| 1778133735 | 30° C | 75% | 1006.7 hPa | - | - | - | - |
| 1778132835 | 29.44° C | 70% | 1006.8 hPa | - | - | - | - |
| 1778131935 | 29.44° C | 70% | 1007.2 hPa | - | - | - | - |
| 1778131035 | 29.44° C | 72% | 1007.6 hPa | - | - | - | - |
| 1778130135 | 29.44° C | 76% | 1008 hPa | - | - | - | - |
| 1778129235 | 29.44° C | 77% | 1008.2 hPa | - | - | - | - |
| 1778128334 | 28.89° C | 72% | 1008.5 hPa | - | - | - | - |
| 1778127435 | 28.89° C | 75% | 1008.9 hPa | - | - | - | - |
| 1778126534 | 28.89° C | 76% | 1009.2 hPa | - | - | - | - |
| 1778125634 | 28.89° C | 77% | 1009.6 hPa | - | - | - | - |
| 1778124734 | 28.89° C | 82% | 1009.7 hPa | - | - | - | - |
| 1778123834 | 28.33° C | 79% | 1009.9 hPa | - | - | - | - |
| 1778122934 | 28.33° C | 79% | 1010.1 hPa | - | - | - | - |
| 1778122032 | 27.78° C | 80% | 1010.1 hPa | - | - | - | - |
* Rain since midnight (hover to see other rain measurements)
** Current wind speed in m/s (hover to see current wind gust speed)